EW5833 Weather Reports


Display with metric or nautical units.
time (UTC)temp
F
wind
direction
speed
MPH
gust
MPH
rain 1hr
in
rain 24hr
in
rain mn
in
humidity
%
barometer
mb
20260507103702 34 0 0.0 0.0 0.00 0.00 0.00 97 1011.1
20260507102700 34 0 0.0 0.0 0.00 0.00 0.00 96 1011.1
20260507102147 34 0 0.0 0.0 0.00 0.01 0.00 96 1011.2
20260507101701 34 0 0.0 0.0 0.00 0.01 0.00 96 1011.2
20260507101624 34 0 0.0 0.0 0.00 0.01 0.00 95 1011.2
20260507100702 34 0 0.0 0.0 0.00 0.01 0.00 95 1011.2
20260507095701 35 0 0.0 0.0 0.00 0.01 0.00 96 1011.2
20260507095147 35 0 0.0 0.0 0.00 0.01 0.00 95 1011.2
20260507094913 35 0 0.0 0.0 0.00 0.01 0.00 95 1011.2
20260507094145 35 0 0.0 0.0 0.00 0.01 0.00 95 1011.2
20260507093702 35 0 0.0 0.0 0.00 0.01 0.00 95 1011.2
20260507093628 35 0 0.0 0.0 0.00 0.01 0.00 94 1011.2
20260507092701 35 0 0.0 0.0 0.00 0.01 0.00 94 1011.2
20260507092146 35 0 0.0 0.0 0.00 0.01 0.00 94 1011.3
20260507091913 35 0 0.0 0.0 0.00 0.01 0.00 94 1011.3
20260507090701 35 0 0.0 0.0 0.00 0.01 0.00 94 1011.4
20260507090140 35 0 0.0 0.0 0.00 0.01 0.00 94 1011.5
20260507085913 35 0 0.0 0.0 0.00 0.01 0.00 94 1011.5
20260507085140 35 0 0.0 0.0 0.00 0.01 0.00 94 1011.5
20260507084915 35 0 0.0 0.0 0.00 0.01 0.00 94 1011.5
20260507084358 35 0 0.0 0.0 0.00 0.01 0.00 93 1011.5
20260507084238 35 0 0.0 0.0 0.00 0.01 0.00 93 1011.5
20260507082701 35 0 0.0 0.0 0.00 0.01 0.00 93 1011.4
20260507081705 35 0 0.0 0.0 0.00 0.01 0.00 93 1011.4
20260507081142 35 0 0.0 0.0 0.00 0.01 0.00 91 1011.5
20260507080914 35 0 0.0 0.0 0.00 0.01 0.00 91 1011.5
20260507080147 35 0 0.0 1.0 0.00 0.01 0.00 91 1011.4
20260507075912 35 0 0.0 1.0 0.00 0.01 0.00 91 1011.4
20260507075145 35 0 0.0 0.0 0.00 0.01 0.00 89 1011.5
20260507074703 35 0 0.0 0.0 0.00 0.01 0.00 89 1011.5
20260507074137 36 0 0.0 0.0 0.00 0.01 0.00 89 1011.5
20260507073914 36 0 0.0 0.0 0.00 0.01 0.00 89 1011.5
20260507072703 36 0 0.0 1.0 0.00 0.01 0.00 87 1011.5
20260507071702 37 0 0.0 0.0 0.00 0.01 0.00 85 1011.5
20260507071357 37 0 0.0 0.0 0.00 0.01 0.00 82 1011.6
20260507071243 37 0 0.0 0.0 0.00 0.01 0.00 82 1011.6
20260507065702 38 0 0.0 0.0 0.00 0.01 0.00 81 1011.6
20260507065200 38 0 0.0 0.0 0.00 0.01 0.00 77 1011.6
20260507064701 38 0 0.0 0.0 0.00 0.01 0.00 77 1011.6
20260507063703 39 0 0.0 1.0 0.00 0.01 0.00 75 1011.6
20260507063152 40 0 0.0 0.0 0.00 0.01 0.00 72 1011.6
20260507062701 40 0 0.0 0.0 0.00 0.01 0.00 72 1011.6
20260507061701 41 0 0.0 0.0 0.00 0.01 0.00 69 1011.7
20260507061144 42 345 0.0 1.0 0.00 0.01 0.00 67 1011.7
20260507060701 42 345 0.0 1.0 0.00 0.01 0.00 67 1011.7
20260507055701 43 0 0.0 3.0 0.00 0.01 0.00 64 1011.6
20260507055143 43 344 0.0 3.0 0.00 0.01 0.00 62 1011.6
20260507054701 43 344 0.0 3.0 0.00 0.01 0.00 62 1011.6
20260507054140 44 0 0.0 2.0 0.00 0.01 0.00 60 1011.7
20260507053911 44 0 0.0 2.0 0.00 0.01 0.00 60 1011.7
20260507053146 45 0 0.0 3.0 0.00 0.01 0.00 58 1011.7
20260507052703 45 0 0.0 3.0 0.00 0.01 0.00 58 1011.7
20260507051703 45 326 0.0 3.0 0.00 0.01 0.00 57 1011.7
20260507051154 46 307 1.0 4.0 0.00 0.01 0.00 56 1011.7
20260507050915 46 307 1.0 4.0 0.00 0.01 0.00 56 1011.7
20260507045702 45 0 0.0 4.0 0.00 0.01 0.00 56 1011.7
20260507044701 44 307 0.0 3.0 0.00 0.01 0.00 58 1011.7
20260507044148 44 0 0.0 0.0 0.00 0.01 0.00 65 1011.8
20260507043702 44 0 0.0 0.0 0.00 0.01 0.00 65 1011.8
20260507042701 44 0 0.0 0.0 0.00 0.01 0.00 64 1011.7
20260507041700 44 0 0.0 0.0 0.00 0.01 0.00 63 1011.8
20260507040701 44 0 0.0 0.0 0.00 0.01 0.00 67 1011.7
20260507035701 44 0 0.0 0.0 0.00 0.01 0.01 67 1011.7
20260507034701 44 0 0.0 0.0 0.00 0.01 0.01 66 1011.8
20260507034630 44 0 0.0 0.0 0.00 0.01 0.01 67 1011.9
20260507033702 44 0 0.0 0.0 0.00 0.01 0.01 67 1011.9
20260507032702 45 0 0.0 0.0 0.00 0.01 0.01 67 1011.9
20260507031701 45 0 0.0 0.0 0.00 0.01 0.01 68 1011.9
20260507030701 45 0 0.0 0.0 0.00 0.01 0.01 71 1012.0
20260507025701 45 0 0.0 1.0 0.00 0.01 0.01 69 1012.0
20260507025146 45 0 0.0 0.0 0.00 0.01 0.01 68 1012.0
20260507024702 45 0 0.0 0.0 0.00 0.01 0.01 68 1012.0
20260507023702 45 0 0.0 0.0 0.00 0.01 0.01 68 1011.9
20260507022701 45 0 0.0 0.0 0.00 0.01 0.01 68 1012.0
20260507021700 45 0 0.0 0.0 0.00 0.01 0.01 70 1011.9
20260507020701 45 0 0.0 0.0 0.00 0.01 0.01 70 1011.8
20260507020136 45 0 0.0 0.0 0.00 0.01 0.01 69 1011.7
20260507015914 45 0 0.0 0.0 0.00 0.01 0.01 69 1011.7
20260507014701 46 0 0.0 0.0 0.00 0.01 0.01 67 1011.8
20260507013702 46 0 0.0 0.0 0.00 0.01 0.01 67 1011.6
20260507012700 46 0 0.0 1.0 0.00 0.01 0.01 67 1011.6
20260507011702 46 0 0.0 0.0 0.00 0.01 0.01 65 1011.5
20260507011139 47 0 0.0 0.0 0.00 0.01 0.01 64 1011.7
20260507010959 47 0 0.0 0.0 0.00 0.01 0.01 58 1011.6
20260507010914 47 0 0.0 0.0 0.00 0.01 0.01 64 1011.7
20260507010240 47 0 0.0 0.0 0.00 0.01 0.01 58 1011.6
20260507005140 47 0 0.0 0.0 0.00 0.01 0.01 58 1011.6
20260507004701 47 0 0.0 0.0 0.00 0.01 0.01 58 1011.6
20260507004145 48 0 0.0 0.0 0.00 0.01 0.01 55 1011.6
20260507003914 48 0 0.0 0.0 0.00 0.01 0.01 55 1011.6
20260507002702 48 0 0.0 1.0 0.00 0.01 0.01 53 1011.5
20260507002146 49 0 0.0 0.0 0.00 0.01 0.01 51 1011.5
20260507001911 49 0 0.0 0.0 0.00 0.01 0.01 51 1011.5
20260507001629 49 0 0.0 0.0 0.00 0.01 0.01 52 1011.5
20260507000701 49 0 0.0 0.0 0.00 0.01 0.01 52 1011.5
20260506235703 49 0 0.0 4.0 0.00 0.01 0.01 51 1011.4
20260506234702 49 0 1.0 5.0 0.00 0.01 0.01 51 1011.3
20260506234150 50 152 0.0 3.0 0.00 0.00 0.00 49 1011.3
20260506233913 50 152 0.0 3.0 0.00 0.00 0.00 49 1011.3
20260506232703 50 292 0.0 8.0 0.00 0.00 0.00 49 1011.3
20260506231703 50 254 1.0 8.0 0.00 0.00 0.00 47 1011.2
20260506231138 51 242 1.0 6.0 0.00 0.00 0.00 49 1011.2
20260506230702 51 242 1.0 6.0 0.00 0.00 0.00 49 1011.2
20260506230356 51 0 0.0 6.0 0.00 0.00 0.00 48 1011.2
20260506230236 51 0 0.0 6.0 0.00 0.00 0.00 48 1011.2
20260506225145 51 0 1.0 6.0 0.00 0.00 0.00 48 1011.3
20260506224701 51 0 1.0 6.0 0.00 0.00 0.00 48 1011.3
20260506223705 51 277 0.0 4.0 0.00 0.00 0.00 48 1011.4
20260506223701 51 277 0.0 4.0 0.00 0.00 0.00 48 1011.4
20260506223142 51 268 1.0 5.0 0.00 0.00 0.00 47 1011.5
20260506222957 50 232 2.0 7.0 0.00 0.00 0.00 46 1011.5
20260506222701 51 268 1.0 5.0 0.00 0.00 0.00 47 1011.5
20260506222242 50 232 2.0 7.0 0.00 0.00 0.00 46 1011.5
20260506221137 51 277 2.0 6.0 0.00 0.00 0.00 47 1011.4
20260506220908 51 292 2.0 6.0 0.00 0.00 0.00 47 1011.4
20260506215702 51 0 1.0 6.0 0.00 0.00 0.00 46 1011.4
20260506215658 51 0 1.0 6.0 0.00 0.00 0.00 46 1011.4
20260506214702 51 0 1.0 6.0 0.00 0.00 0.00 46 1011.3
20260506214658 51 0 1.0 6.0 0.00 0.00 0.00 46 1011.3
20260506214155 50 244 2.0 6.0 0.00 0.00 0.00 46 1011.3
20260506213657 50 244 2.0 6.0 0.00 0.00 0.00 46 1011.3
20260506212704 50 0 2.0 9.0 0.00 0.00 0.00 47 1011.3
20260506212700 50 0 2.0 9.0 0.00 0.00 0.00 47 1011.3
20260506212140 50 0 2.0 7.0 0.00 0.00 0.00 48 1011.3
20260506211910 50 0 2.0 7.0 0.00 0.00 0.00 48 1011.3
20260506211157 50 321 2.0 8.0 0.00 0.00 0.00 46 1011.3
20260506210657 50 0 2.0 8.0 0.00 0.00 0.00 46 1011.3
20260506210137 51 301 1.0 7.0 0.00 0.00 0.00 46 1011.3
20260506205656 51 0 1.0 7.0 0.00 0.00 0.00 46 1011.3
20260506204655 52 0 1.0 4.0 0.00 0.00 0.00 46 1011.3
20260506204141 52 302 2.0 7.0 0.00 0.00 0.00 47 1011.2
20260506203908 52 302 2.0 7.0 0.00 0.00 0.00 47 1011.2
20260506202656 51 0 2.0 9.0 0.00 0.00 0.00 49 1011.2
20260506201654 51 319 2.0 9.0 0.00 0.00 0.00 47 1011.4
20260506201609 51 275 3.0 10.0 0.00 0.00 0.00 47 1011.4
20260506200654 51 275 3.0 10.0 0.00 0.00 0.00 47 1011.4
20260506200139 51 79 2.0 7.0 0.00 0.00 0.00 47 1011.4
20260506195906 51 79 2.0 7.0 0.00 0.00 0.00 47 1011.4
20260506194653 51 0 2.0 9.0 0.00 0.00 0.00 47 1011.4
20260506193651 50 325 2.0 8.0 0.00 0.00 0.00 48 1011.5
20260506193131 50 221 4.0 9.0 0.00 0.00 0.00 47 1011.6
20260506192859 50 221 4.0 9.0 0.00 0.00 0.00 47 1011.6
20260506191649 50 43 2.0 11.0 0.00 0.00 0.00 49 1011.6
20260506190647 50 317 2.0 11.0 0.00 0.00 0.00 47 1011.5
20260506185648 51 355 4.0 9.0 0.00 0.00 0.00 45 1011.4
20260506184648 50 271 3.0 10.0 0.00 0.00 0.00 47 1011.3
20260506183650 49 259 2.0 7.0 0.00 0.00 0.00 48 1011.5
20260506183620 49 339 2.0 9.0 0.00 0.00 0.00 49 1011.4
20260506182648 49 339 2.0 9.0 0.00 0.00 0.00 49 1011.4
20260506181646 49 326 3.0 9.0 0.00 0.00 0.00 51 1011.4
20260506181122 49 318 3.0 7.0 0.00 0.00 0.00 53 1011.6
20260506180859 49 318 3.0 7.0 0.00 0.00 0.00 53 1011.6
20260506175647 49 346 3.0 7.0 0.00 0.00 0.00 52 1011.7
20260506174646 50 0 1.0 6.0 0.00 0.00 0.00 52 1011.8
20260506173644 48 332 2.0 6.0 0.00 0.00 0.00 55 1011.7
20260506172645 47 341 4.0 9.0 0.00 0.00 0.00 57 1011.8
20260506171645 47 300 3.0 8.0 0.00 0.00 0.00 56 1011.8
20260506170645 48 319 3.0 8.0 0.00 0.00 0.00 54 1011.6
20260506170131 49 359 2.0 9.0 0.00 0.00 0.00 52 1011.5
20260506165856 49 359 2.0 9.0 0.00 0.00 0.00 52 1011.5
20260506165343 49 0 2.0 6.0 0.00 0.00 0.00 52 1011.6
20260506165223 49 0 2.0 6.0 0.00 0.00 0.00 52 1011.6
20260506164125 49 74 3.0 9.0 0.00 0.00 0.00 54 1011.7
20260506163856 49 74 3.0 9.0 0.00 0.00 0.00 54 1011.7
20260506162642 49 359 2.0 9.0 0.00 0.00 0.00 53 1011.8
20260506161642 49 21 3.0 7.0 0.00 0.00 0.00 55 1011.7
20260506160643 49 24 3.0 12.0 0.00 0.00 0.00 53 1011.6
20260506155644 48 313 4.0 9.0 0.00 0.01 0.00 55 1011.6
20260506154641 48 249 3.0 6.0 0.00 0.01 0.00 55 1011.4
20260506154617 48 54 3.0 7.0 0.00 0.02 0.00 56 1011.5
20260506153641 48 54 3.0 7.0 0.00 0.02 0.00 56 1011.5
20260506152641 48 74 3.0 9.0 0.00 0.02 0.00 56 1011.5
20260506151637 47 273 3.0 11.0 0.00 0.02 0.00 56 1011.7
20260506151115 47 0 3.0 7.0 0.00 0.02 0.00 57 1011.5
20260506150847 47 0 3.0 7.0 0.00 0.02 0.00 57 1011.5
20260506145650 46 65 3.0 10.0 0.00 0.02 0.00 59 1011.3
20260506145637 46 0 4.0 9.0 0.00 0.02 0.00 58 1011.4
20260506145506 46 65 3.0 10.0 0.00 0.02 0.00 59 1011.3
20260506143632 47 307 2.0 7.0 0.00 0.02 0.00 58 1011.2
20260506143109 46 338 3.0 9.0 0.00 0.02 0.00 60 1011.2
20260506142843 46 338 3.0 9.0 0.00 0.02 0.00 60 1011.2
20260506142318 45 343 3.0 7.0 0.00 0.02 0.00 61 1011.2
20260506142211 45 343 3.0 7.0 0.00 0.02 0.00 61 1011.2
20260506140634 45 319 3.0 9.0 0.00 0.02 0.00 61 1011.0
20260506140338 44 308 4.0 10.0 0.00 0.02 0.00 61 1011.0
20260506140207 44 308 4.0 10.0 0.00 0.02 0.00 61 1011.0
20260506134630 44 326 3.0 8.0 0.00 0.02 0.00 61 1010.9
20260506134118 44 74 4.0 10.0 0.00 0.02 0.00 60 1010.9
20260506133631 44 74 4.0 10.0 0.00 0.02 0.00 60 1010.9
20260506133111 44 10 3.0 9.0 0.00 0.02 0.00 63 1010.7
20260506132841 44 10 3.0 9.0 0.00 0.02 0.00 63 1010.7
20260506132116 43 329 4.0 11.0 0.00 0.02 0.00 62 1010.7
20260506131843 43 329 4.0 11.0 0.00 0.02 0.00 62 1010.7
20260506131111 43 9 3.0 7.0 0.00 0.02 0.00 62 1010.5
20260506130840 43 9 3.0 7.0 0.00 0.02 0.00 62 1010.5
20260506130118 42 59 5.0 11.0 0.00 0.02 0.00 62 1010.3
20260506125840 42 59 5.0 11.0 0.00 0.02 0.00 62 1010.3
20260506125104 42 19 3.0 8.0 0.00 0.02 0.00 65 1010.3
20260506124840 42 19 3.0 8.0 0.00 0.02 0.00 65 1010.3
20260506124257 41 46 5.0 13.0 0.00 0.02 0.00 66 1010.3
20260506124137 41 62 3.0 7.0 0.00 0.02 0.00 66 1010.3
20260506124025 41 46 5.0 13.0 0.00 0.02 0.00 66 1010.3
20260506122629 41 62 3.0 7.0 0.00 0.02 0.00 66 1010.3
20260506121628 41 50 3.0 8.0 0.00 0.02 0.00 70 1009.9
20260506121111 41 73 3.0 9.0 0.00 0.02 0.00 71 1010.1
20260506120842 41 73 3.0 9.0 0.00 0.02 0.00 71 1010.1
20260506115630 41 53 3.0 6.0 0.00 0.02 0.00 73 1009.7
20260506115315 40 64 3.0 9.0 0.00 0.02 0.00 73 1009.5
20260506115212 40 64 3.0 9.0 0.00 0.02 0.00 73 1009.5
20260506113629 40 353 2.0 5.0 0.00 0.02 0.00 74 1009.6
20260506112634 40 345 1.0 4.0 0.00 0.02 0.00 74 1009.4
20260506111629 39 46 1.0 2.0 0.00 0.02 0.00 75 1009.4
20260506110630 40 0 0.0 1.0 0.00 0.02 0.00 74 1009.1
20260506105629 40 324 0.0 1.0 0.00 0.02 0.00 73 1009.0
20260506104629 40 44 0.0 3.0 0.00 0.02 0.00 72 1008.8